Simultaneous Nadir Overpasses (SNOs) Predictions

Prediction of SNOs between AQUA and NOAA-19 Satellite Orbit:

Table of predicted SNOs for the next 14.0 days since TLE Epoch: 8/19/2017
Index Date (AQUA) Time (AQUA) Lat,Lon (AQUA) SZA (AQUA ) Date (NOAA-19) Time (NOAA-19) Lat,Lon (NOAA-19) SZA (NOAA-19 ) Distance(km) Time Diff (sec)
1 08/19/2017 10:49:00 -80.94, 157.40 109.39 08/19/2017 10:48:23 -80.94, 157.33 109.37 1.14 37
2 08/19/2017 11:38:27 80.95, -35.09 70.64 08/19/2017 11:39:23 80.95, -35.01 70.61 1.65 56
3 08/21/2017 16:22:44 80.95,-106.12 71.35 08/21/2017 16:22:10 80.94,-106.14 71.36 0.91 34
4 08/21/2017 17:12:10 -80.94, 61.67 108.67 08/21/2017 17:13:10 -80.95, 61.50 108.67 3.04 60
5 08/23/2017 21:56:27 -80.94, -9.38 107.95 08/23/2017 21:55:57 -80.94, -9.43 107.93 1.12 30
6 08/23/2017 22:45:54 80.95, 158.14 72.08 08/23/2017 22:46:56 80.95, 158.13 72.06 0.26 62
7 08/26/2017 03:30:11 80.95, 87.07 72.82 08/26/2017 03:29:43 80.94, 86.93 72.85 2.53 28
8 08/26/2017 04:19:37 -80.94,-105.15 107.19 08/26/2017 04:20:44 -80.95,-105.33 107.20 3.35 67
9 08/28/2017 09:03:54 -80.94,-176.24 106.44 08/28/2017 09:03:31 -80.94,-176.33 106.42 1.74 23
10 08/28/2017 09:53:21 80.95, -8.72 73.59 08/28/2017 09:54:29 80.94, -8.86 73.58 2.55 68
11 08/30/2017 14:37:38 80.95, -79.83 74.36 08/30/2017 14:37:15 80.94, -79.75 74.36 1.62 23
12 08/30/2017 15:27:04 -80.94, 87.95 105.65 08/30/2017 15:28:17 -80.95, 88.06 105.69 2.15 73
13 09/01/2017 20:11:21 -80.94, 16.81 104.87 09/01/2017 20:11:04 -80.94, 16.98 104.88 3.01 17




NCC Satellite Simultaneous Nadir Overpasses (SNOs) Prediction Service
